1494802800.24,54402,16.75,74298.3,-3.21,-35.77,-36.13,0,*56
1494802801.44,54403,16.75,74302.3,-3.19,-35.71,-36.07,0,*5F
1494802802.66,54404,16.75,74304.3,-3.19,-35.71,-36.01,0,*5E
1494802803.94,54405,16.75,74302.0,-3.17,-35.53,-35.83,0,*58
1494802805.2,54406,16.69,74294.8,-3.21,-35.53,-35.89,0,*54
1494802806.43,54407,16.75,74300.5,-3.19,-35.65,-36.01,0,*58
1494802807.64,54408,16.75,74296.0,-3.19,-35.71,-36.01,0,*52
1494802808.88,54409,16.75,74294.3,-3.21,-35.77,-36.31,0,*5D
1494802810.12,54410,16.75,74294.8,-3.21,-35.89,-36.31,0,*54
1494802811.33,54411,16.75,74298.8,-3.19,-35.71,-36.07,0,*5C
1494802812.56,54412,16.75,74300.3,-3.17,-35.71,-36.01,0,*57
1494802813.8,54413,16.75,74304.3,-3.19,-35.77,-36.25,0,*58
1494802815.03,54414,16.75,74300.3,-3.19,-35.89,-36.37,0,*5D
1494802816.24,54415,16.75,74302.8,-3.19,-35.89,-36.07,0,*5F
1494802817.45,54416,16.75,74296.0,-3.19,-35.71,-36.19,0,*54
1494802818.68,54417,16.75,74300.5,-3.21,-35.77,-36.07,0,*57
1494802819.95,54418,16.75,74300.5,-3.21,-35.95,-36.31,0,*51
1494802821.21,54419,16.75,74298.8,-3.21,-35.95,-36.31,0,*50
1494802822.45,54420,16.75,74302.3,-3.21,-35.77,-36.07,0,*53
1494802823.71,54421,16.75,74300.0,-3.21,-35.89,-36.13,0,*56
1494802824.97,54422,16.75,74302.0,-3.21,-35.77,-36.13,0,*54
1494802826.23,54423,16.75,74300.3,-3.21,-35.95,-36.43,0,*5C
1494802827.5,54424,16.75,74300.8,-3.21,-35.95,-36.31,0,*5E
1494802828.76,54425,16.75,74298.8,-3.21,-35.89,-36.13,0,*52
1494802830.02,54426,16.75,74298.8,-3.21,-35.77,-36.13,0,*50
1494802831.25,54427,16.69,74298.5,-3.23,-35.89,-36.25,0,*57
1494802832.49,54428,16.75,74302.3,-3.23,-35.77,-36.13,0,*5C
1494802833.74,54429,16.75,74306.8,-3.25,-35.59,-35.83,0,*5D
1494802834.98,54430,16.75,74304.0,-3.23,-35.41,-35.89,0,*50
1494802836.18,54431,16.75,74302.0,-3.23,-35.89,-36.19,0,*5F
1494802837.41,54432,16.75,74302.5,-3.25,-35.77,-36.19,0,*5B
1494802838.65,54433,16.75,74298.3,-3.25,-35.59,-36.01,0,*5F
1494802839.88,54434,16.75,74298.0,-3.23,-35.77,-36.13,0,*51
1494802841.09,54435,16.75,74300.8,-3.23,-35.77,-36.31,0,*50
1494802842.37,54436,16.75,74296.0,-3.25,-35.95,-36.37,0,*5F
1494802843.61,54437,16.75,74296.0,-3.23,-35.95,-36.31,0,*5E
1494802844.84,54438,16.75,74296.5,-3.25,-35.59,-36.01,0,*54
1494802846.12,54439,16.75,74292.5,-3.25,-35.65,-36.13,0,*59
1494802847.4,54440,16.75,74296.5,-3.25,-35.65,-36.13,0,*57
1494802848.6,54441,16.75,74298.5,-3.23,-35.71,-36.07,0,*50
1494802849.86,54442,16.75,74292.5,-3.25,-35.47,-35.95,0,*58
1494802851.12,54443,16.75,74292.8,-3.25,-35.41,-35.77,0,*53
1494802852.38,54444,16.75,74292.0,-3.25,-35.47,-35.83,0,*59
1494802853.64,54445,16.75,74296.5,-3.25,-35.83,-36.31,0,*5A
1494802854.9,54446,16.75,74296.0,-3.23,-35.83,-36.25,0,*5A
1494802856.17,54447,16.75,74294.8,-3.25,-35.47,-35.95,0,*5D
1494802857.45,54448,16.75,74294.5,-3.25,-35.41,-35.95,0,*54
1494802858.74,54449,16.75,74296.8,-3.25,-35.41,-35.95,0,*55
1494802859.98,54450,16.75,74296.8,-3.25,-35.47,-35.77,0,*57
1494802861.26,54451,16.75,74302.5,-3.25,-35.41,-35.95,0,*5C
1494802862.51,54452,16.69,74298.0,-3.25,-35.59,-36.13,0,*5B
1494802863.73,54453,16.75,74304.0,-3.23,-35.53,-36.07,0,*53
1494802864.94,54454,16.75,74302.3,-3.23,-35.59,-36.01,0,*58
1494802866.16,54455,16.75,74302.5,-3.23,-35.53,-36.07,0,*55
1494802867.4,54456,16.75,74300.0,-3.23,-35.59,-35.95,0,*54
1494802868.6,54457,16.75,74300.8,-3.23,-35.59,-36.07,0,*5D
1494802869.85,54458,16.75,74300.8,-3.25,-35.59,-36.13,0,*51
1494802871.09,54459,16.75,74302.3,-3.23,-35.59,-35.95,0,*5B
1494802872.32,54460,16.75,74304.0,-3.25,-35.59,-35.77,0,*5B
1494802873.61,54461,16.75,74306.3,-3.25,-35.65,-35.95,0,*59
1494802874.84,54462,16.75,74304.5,-3.25,-35.59,-36.01,0,*5B
1494802876.06,54463,16.75,74304.8,-3.23,-35.29,-35.77,0,*59
1494802877.29,54464,16.75,74300.5,-3.23,-35.41,-35.89,0,*51
1494802878.52,54465,16.75,74302.0,-3.23,-35.71,-36.13,0,*53
1494802879.75,54466,16.75,74300.0,-3.23,-35.89,-36.13,0,*57
1494802881.02,54467,16.75,74300.0,-3.25,-35.65,-36.13,0,*52
1494802882.3,54468,16.69,74298.0,-3.25,-35.65,-36.13,0,*5D
1494802883.56,54469,16.75,74298.0,-3.25,-35.59,-35.95,0,*5E
1494802884.82,54470,16.75,74296.8,-3.23,-35.53,-35.95,0,*5A
1494802886.05,54471,16.75,74300.3,-3.23,-35.41,-35.89,0,*55
1494802887.31,54472,16.75,74302.8,-3.25,-35.47,-35.95,0,*5B
1494802888.52,54473,16.69,74302.8,-3.23,-35.71,-36.31,0,*54
1494802889.76,54474,16.75,74304.8,-3.23,-35.59,-35.95,0,*54
1494802891.02,54475,16.75,74304.3,-3.25,-35.47,-35.95,0,*5C
1494802892.26,54476,16.75,74302.8,-3.25,-35.77,-36.31,0,*51
1494802893.49,54477,16.75,74300.8,-3.23,-35.77,-36.13,0,*56
1494802894.74,54478,16.75,74306.0,-3.25,-35.65,-36.19,0,*56
1494802896.02,54479,16.75,74300.5,-3.25,-35.41,-35.83,0,*51
1494802897.22,54480,16.75,74302.5,-3.23,-35.59,-36.07,0,*57
1494802898.48,54481,16.69,74298.5,-3.25,-35.41,-35.77,0,*5D
1494802899.68,54482,16.75,74298.5,-3.23,-35.17,-35.59,0,*57
1494802900.91,54483,16.75,74298.5,-3.23,-35.41,-35.89,0,*58
1494802902.16,54484,16.75,74300.5,-3.21,-35.53,-36.07,0,*5B
1494802903.4,54485,16.75,74302.0,-3.25,-35.59,-36.01,0,*52
1494802904.63,54486,16.75,74304.0,-3.23,-35.71,-36.13,0,*5E
1494802905.86,54487,16.69,74302.3,-3.23,-35.77,-36.25,0,*5C
1494802907.07,54488,16.75,74304.3,-3.23,-35.59,-36.07,0,*5F
1494802908.35,54489,16.75,74308.5,-3.25,-35.65,-35.83,0,*58
1494802909.57,54490,16.75,74304.3,-3.25,-35.17,-35.59,0,*52
1494802910.83,54491,16.69,74300.0,-3.23,-34.83,-35.41,0,*50
1494802912.09,54492,16.69,74300.0,-3.23,-34.83,-35.35,0,*50
1494802913.32,54493,16.75,74306.8,-3.23,-35.13,-35.41,0,*5A
1494802914.52,54494,16.75,74306.5,-3.23,-35.17,-35.59,0,*50
1494802915.78,54495,16.75,74306.8,-3.21,-35.13,-35.53,0,*5D
1494802917.01,54496,16.75,74306.0,-3.21,-35.13,-35.59,0,*54
1494802918.28,54497,16.75,74306.0,-3.21,-35.01,-35.53,0,*5C
1494802919.54,54498,16.75,74308.0,-3.21,-35.13,-35.53,0,*50
1494802920.8,54499,16.75,74306.5,-3.21,-35.01,-35.41,0,*51
1494802922.06,54500,16.75,74308.5,-3.21,-35.41,-35.71,0,*57
1494802923.29,54501,16.69,74304.5,-3.21,-35.71,-36.07,0,*57
1494802924.55,54502,16.69,74298.8,-3.21,-35.77,-36.13,0,*57
1494802925.79,54503,16.75,74302.0,-3.21,-35.77,-36.31,0,*56
1494802927.05,54504,16.75,74300.5,-3.21,-35.59,-35.95,0,*50
1494802928.28,54505,16.75,74302.5,-3.19,-35.65,-36.07,0,*5D
1494802929.53,54506,16.69,74298.5,-3.21,-35.29,-35.89,0,*58
1494802930.81,54507,16.75,74300.0,-3.21,-35.41,-35.95,0,*5A
1494802932.05,54508,16.69,74302.3,-3.19,-35.71,-36.25,0,*55
1494802933.31,54509,16.75,74310.0,-3.21,-35.59,-36.25,0,*55
1494802934.52,54510,16.75,74308.3,-3.19,-35.13,-35.47,0,*5F
1494802935.81,54511,16.75,74306.5,-3.21,-34.95,-35.41,0,*5C
1494802937.04,54512,16.75,74306.8,-3.21,-35.13,-35.59,0,*59
1494802938.25,54513,16.75,74300.8,-3.19,-35.13,-35.47,0,*5C
1494802939.49,54514,16.75,74296.3,-3.19,-34.95,-35.29,0,*5C
1494802940.75,54515,16.75,74298.5,-3.21,-35.13,-35.53,0,*54
1494802941.99,54516,16.69,74292.5,-3.19,-35.07,-35.47,0,*5C
1494802943.2,54517,16.75,74290.8,-3.19,-35.29,-35.71,0,*54
1494802944.46,54518,16.75,74294.3,-3.17,-35.29,-35.83,0,*58
1494802945.72,54519,16.75,74296.0,-3.13,-35.41,-35.77,0,*58
1494802946.97,54520,16.75,74302.0,-3.17,-35.65,-36.07,0,*54
1494802948.23,54521,16.75,74302.0,-3.17,-35.53,-36.01,0,*56
1494802949.48,54522,16.75,74300.5,-3.17,-35.29,-35.65,0,*59
1494802950.74,54523,16.75,74302.3,-3.17,-35.65,-36.01,0,*51
1494802951.99,54524,16.75,74302.3,-3.17,-35.65,-36.07,0,*50
1494802953.28,54525,16.75,74302.3,-3.13,-35.65,-35.95,0,*5D
1494802954.51,54526,16.75,74300.3,-3.17,-35.71,-36.19,0,*58
1494802955.74,54527,16.75,74304.5,-3.17,-35.47,-35.71,0,*51
1494802956.99,54528,16.75,74300.0,-3.13,-35.29,-35.65,0,*57
1494802958.28,54529,16.75,74296.3,-3.17,-35.35,-35.83,0,*57
1494802959.53,54530,16.69,74294.0,-3.17,-35.35,-35.71,0,*52
1494802960.79,54531,16.75,74298.5,-3.17,-35.65,-36.01,0,*52
1494802962.03,54532,16.75,74294.8,-3.17,-35.71,-36.01,0,*54
1494802963.29,54533,16.69,74294.0,-3.17,-35.65,-36.01,0,*50
1494802964.54,54534,16.75,74298.5,-3.17,-35.53,-35.89,0,*51
1494802965.81,54535,16.69,74298.8,-3.17,-35.65,-35.89,0,*55
1494802967.06,54536,16.75,74298.8,-3.17,-35.53,-35.89,0,*53
1494802968.32,54537,16.69,74290.0,-3.17,-35.65,-35.89,0,*57
1494802969.58,54538,16.75,74290.5,-3.13,-35.77,-36.13,0,*5F
1494802970.83,54539,16.75,74288.8,-3.13,-35.77,-36.01,0,*5D
1494802972.09,54540,16.69,74294.0,-3.13,-35.59,-35.95,0,*51
1494802973.35,54541,16.75,74300.8,-3.13,-35.59,-35.95,0,*50
1494802974.6,54542,16.75,74298.5,-3.17,-35.53,-36.01,0,*53
1494802975.87,54543,16.75,74298.8,-3.13,-35.47,-35.95,0,*5D
1494802977.13,54544,16.75,74300.0,-3.13,-35.47,-35.95,0,*5A
1494802978.36,54545,16.75,74304.3,-3.17,-35.71,-36.07,0,*52
1494802979.62,54546,16.69,74302.3,-3.17,-35.53,-36.01,0,*57
1494802980.88,54547,16.75,74298.8,-3.13,-35.47,-35.83,0,*5E
1494802982.11,54548,16.75,74298.3,-3.13,-35.59,-36.01,0,*57
1494802983.36,54549,16.75,74298.8,-3.17,-35.65,-36.19,0,*54
1494802984.63,54550,16.75,74298.0,-3.13,-35.77,-36.25,0,*54
1494802985.91,54551,16.75,74296.5,-3.17,-35.83,-36.25,0,*5A
1494802987.14,54552,16.75,74298.5,-3.17,-35.71,-36.19,0,*5B
1494802988.4,54553,16.75,74304.3,-3.17,-35.83,-36.19,0,*57
1494802989.64,54554,16.75,74306.0,-3.17,-35.71,-36.01,0,*54
1494802990.89,54555,16.75,74304.5,-3.17,-35.83,-36.07,0,*5E
1494802992.12,54556,16.75,74304.3,-3.17,-35.71,-36.07,0,*50
1494802993.39,54557,16.69,74300.5,-3.17,-35.47,-35.83,0,*5B
1494802994.62,54558,16.75,74306.8,-3.17,-35.71,-36.01,0,*58
1494802995.87,54559,16.75,74306.0,-3.17,-35.65,-36.07,0,*5A
1494802997.1,54560,16.75,74304.5,-3.17,-35.47,-35.71,0,*52
1494802998.34,54561,16.69,74300.8,-3.13,-35.29,-35.59,0,*55
1494802999.57,54562,16.75,74300.0,-3.17,-34.89,-35.29,0,*5E
1494803000.82,54563,16.69,74296.8,-3.13,-34.89,-35.23,0,*51
1494803002.06,54564,16.69,74286.5,-3.13,-35.01,-35.47,0,*55
1494803003.3,54565,16.69,74284.8,-3.11,-35.41,-35.77,0,*51
1494803004.55,54566,16.69,74292.0,-3.13,-35.59,-35.83,0,*52
1494803005.84,54567,16.69,74294.5,-3.13,-35.07,-35.53,0,*55
1494803007.07,54568,16.69,74294.5,-3.13,-35.17,-35.59,0,*51
1494803008.33,54569,16.75,74296.3,-3.13,-35.47,-35.83,0,*52
1494803009.57,54570,16.75,74298.3,-3.11,-35.59,-35.95,0,*50
1494803010.8,54571,16.75,74296.8,-3.11,-35.77,-36.13,0,*50
1494803012.05,54572,16.69,74294.8,-3.13,-35.65,-36.19,0,*58
1494803013.31,54573,16.69,74296.5,-3.13,-35.77,-36.13,0,*50
1494803014.6,54574,16.75,74300.5,-3.17,-35.83,-36.25,0,*5D
1494803015.85,54575,16.69,74298.5,-3.11,-35.41,-35.83,0,*5B
1494803017.13,54576,16.75,74298.8,-3.13,-35.41,-35.65,0,*52
1494803018.39,54577,16.75,74294.5,-3.17,-35.47,-35.83,0,*59
1494803019.62,54578,16.69,74286.0,-3.13,-35.29,-35.47,0,*52
1494803020.88,54579,16.75,74284.0,-3.13,-35.17,-35.41,0,*58
1494803022.13,54580,16.69,74286.0,-3.11,-35.41,-35.83,0,*51
1494803023.39,54581,16.69,74284.5,-3.13,-35.47,-35.83,0,*54
1494803024.67,54582,16.69,74292.0,-3.13,-35.41,-35.83,0,*51
1494803025.93,54583,16.69,74290.3,-3.11,-35.41,-35.83,0,*52
1494803027.13,54584,16.69,74290.5,-3.11,-35.17,-35.59,0,*51
1494803028.34,54585,16.69,74292.5,-3.11,-35.17,-35.47,0,*5F
1494803029.55,54586,16.75,74292.8,-3.11,-35.17,-35.47,0,*5C
1494803030.81,54587,16.69,74294.8,-3.13,-35.01,-35.41,0,*5E
1494803032.05,54588,16.69,74294.5,-3.11,-34.95,-35.47,0,*59
1494803033.32,54589,16.75,74300.3,-3.09,-35.01,-35.35,0,*58
1494803034.55,54590,16.75,74296.0,-3.11,-35.13,-35.35,0,*5A
1494803035.8,54591,16.69,74294.3,-3.09,-35.35,-35.71,0,*56
1494803037.06,54592,16.75,74290.0,-3.09,-35.41,-35.71,0,*56
1494803038.32,54593,16.75,74282.3,-3.09,-35.23,-35.59,0,*59
1494803039.57,54594,16.75,74278.8,-3.09,-35.13,-35.41,0,*54
1494803040.83,54595,16.75,74282.0,-3.09,-35.13,-35.53,0,*56
1494803042.09,54596,16.69,74286.3,-3.09,-35.35,-35.71,0,*51
1494803043.32,54597,16.75,74292.5,-3.11,-35.41,-35.77,0,*5C
1494803044.59,54598,16.69,74296.3,-3.09,-35.41,-35.89,0,*5B
1494803045.84,54599,16.75,74300.8,-3.09,-35.53,-35.77,0,*58
1494803047.1,54600,16.69,74300.3,-3.09,-35.17,-35.53,0,*5D
1494803048.36,54601,16.75,74300.0,-3.09,-34.77,-35.23,0,*5C
1494803049.57,54602,16.75,74294.3,-3.07,-34.41,-34.77,0,*54
1494803050.78,54603,16.75,74292.3,-3.07,-34.13,-34.41,0,*57
1494803052.03,54604,16.75,74292.8,-3.05,-34.35,-34.71,0,*55
1494803053.26,54605,16.75,74294.5,-3.05,-35.13,-35.47,0,*55
1494803054.5,54606,16.69,74292.3,-3.05,-35.47,-35.89,0,*55
1494803055.75,54607,16.69,74294.8,-3.03,-35.41,-35.65,0,*56
1494803056.98,54608,16.75,74298.5,-3.05,-35.47,-35.71,0,*5C
1494803058.21,54609,16.69,74294.0,-3.05,-35.29,-35.71,0,*55
1494803059.45,54610,16.69,74296.8,-3.03,-35.47,-35.83,0,*5E
1494803060.71,54611,16.69,74294.5,-3.05,-35.65,-35.89,0,*53
1494803061.96,54612,16.69,74294.0,-3.05,-35.65,-36.01,0,*53
1494803063.22,54613,16.75,74292.3,-3.05,-35.71,-36.25,0,*51
1494803064.46,54614,16.75,74294.5,-3.07,-35.77,-36.13,0,*57
1494803065.68,54615,16.69,74290.0,-3.07,-35.53,-36.07,0,*55
1494803066.92,54616,16.75,74294.5,-3.07,-35.59,-35.95,0,*54
1494803068.18,54617,16.69,74290.8,-3.05,-35.65,-36.01,0,*56
1494803069.38,54618,16.69,74292.0,-3.07,-35.71,-36.19,0,*57
1494803070.6,54619,16.69,74292.0,-3.07,-35.77,-36.31,0,*5A
1494803071.83,54620,16.69,74292.3,-3.07,-35.59,-35.95,0,*51
1494803073.07,54621,16.69,74302.0,-3.07,-35.23,-35.59,0,*5D
1494803074.27,54622,16.69,74300.5,-3.07,-35.17,-35.71,0,*53
1494803075.5,54623,16.69,74300.3,-3.05,-35.13,-35.47,0,*51
1494803076.71,54624,16.69,74304.0,-3.07,-35.17,-35.71,0,*55
1494803077.95,54625,16.69,74304.3,-3.05,-34.71,-35.13,0,*53
1494803079.17,54626,16.69,74300.0,-3.07,-34.71,-35.13,0,*52
1494803080.4,54627,16.75,74300.0,-3.05,-34.59,-34.89,0,*59
1494803081.66,54628,16.69,74294.3,-3.05,-34.59,-35.07,0,*51
1494803082.89,54629,16.69,74292.5,-3.03,-35.13,-35.41,0,*5B
1494803084.13,54630,16.75,74290.8,-3.03,-35.29,-35.83,0,*54
1494803085.37,54631,16.69,74288.3,-3.03,-35.29,-35.65,0,*5D
1494803086.63,54632,16.69,74290.3,-3.05,-35.47,-35.83,0,*58
1494803087.83,54633,16.69,74286.8,-3.03,-35.13,-35.59,0,*59
1494803089.09,54634,16.69,74282.8,-3.03,-35.23,-35.65,0,*52
1494803090.35,54635,16.69,74284.5,-3.03,-35.41,-35.95,0,*58
1494803091.59,54636,16.75,74284.0,-3.03,-35.59,-35.95,0,*52
1494803092.83,54637,16.69,74288.3,-3.03,-35.41,-35.77,0,*56
1494803094.07,54638,16.69,74288.5,-3.01,-35.59,-36.01,0,*50
1494803095.31,54639,16.69,74294.3,-3.03,-35.47,-35.95,0,*52
1494803096.52,54640,16.69,74292.3,-3.03,-35.47,-35.77,0,*50
1494803097.81,54641,16.69,74290.5,-3.05,-35.35,-35.83,0,*59
1494803099.06,54642,16.69,74290.8,-3.03,-35.65,-36.13,0,*53
1494803100.29,54643,16.69,74292.8,-3.03,-35.65,-36.19,0,*58
1494803101.51,54644,16.69,74292.0,-3.05,-35.71,-36.07,0,*53
1494803102.77,54645,16.69,74296.8,-3.05,-35.53,-36.01,0,*54
1494803103.99,54646,16.69,74292.8,-3.05,-35.17,-35.71,0,*53
1494803105.27,54647,16.69,74294.0,-3.05,-35.35,-35.83,0,*5F
1494803106.53,54648,16.69,74290.5,-3.03,-35.41,-35.83,0,*55
1494803107.78,54649,16.69,74296.8,-3.05,-35.53,-36.01,0,*58
1494803109.04,54650,16.69,74298.0,-3.05,-35.53,-36.01,0,*50
1494803110.25,54651,16.69,74292.0,-3.03,-35.47,-35.77,0,*50
1494803111.49,54652,16.69,74294.8,-3.05,-35.47,-35.89,0,*54
1494803112.73,54653,16.69,74294.3,-3.03,-35.77,-36.13,0,*50
1494803113.97,54654,16.69,74296.5,-3.05,-35.47,-35.89,0,*52
1494803115.21,54655,16.69,74296.8,-3.03,-35.59,-35.95,0,*57
1494803116.42,54656,16.69,74296.8,-3.03,-35.59,-36.01,0,*5A
1494803117.65,54657,16.69,74292.5,-3.03,-35.41,-35.77,0,*50
1494803118.91,54658,16.75,74296.8,-3.03,-35.23,-35.65,0,*58
1494803120.15,54659,16.69,74286.0,-3.03,-35.47,-35.95,0,*54
1494803121.41,54660,16.69,74288.0,-3.03,-35.41,-35.83,0,*5F
1494803122.67,54661,16.69,74288.0,-3.03,-35.41,-35.83,0,*5E
1494803123.91,54662,16.75,74290.8,-3.03,-35.59,-35.95,0,*53
1494803125.13,54663,16.69,74286.3,-3.07,-35.71,-36.01,0,*52
1494803126.37,54664,16.69,74292.0,-3.03,-35.47,-35.95,0,*5A
1494803127.64,54665,16.69,74290.3,-3.05,-35.53,-35.83,0,*5F
1494803128.89,54666,16.69,74294.8,-3.05,-35.65,-36.19,0,*59
1494803130.17,54667,16.69,74298.5,-3.05,-35.83,-36.25,0,*5F
1494803131.43,54668,16.69,74296.0,-3.05,-35.53,-36.01,0,*5B
1494803132.66,54669,16.69,74298.5,-3.07,-35.53,-35.89,0,*5B
1494803133.92,54670,16.69,74296.5,-3.05,-35.35,-36.01,0,*52
1494803135.13,54671,16.69,74298.8,-3.07,-35.71,-36.31,0,*52
1494803136.36,54672,16.69,74296.8,-3.07,-35.89,-36.37,0,*50
1494803137.57,54673,16.69,74300.0,-3.07,-35.71,-36.31,0,*50
1494803138.8,54674,16.69,74300.8,-3.07,-35.59,-36.13,0,*5D
1494803140.04,54675,16.75,74304.0,-3.07,-35.59,-35.95,0,*51
1494803141.3,54676,16.69,74304.0,-3.07,-35.41,-35.95,0,*5B
1494803142.53,54677,16.69,74304.0,-3.05,-34.89,-35.47,0,*52
1494803143.79,54678,16.69,74296.3,-3.05,-34.53,-34.89,0,*59
1494803145.03,54679,16.69,74294.3,-3.05,-34.59,-35.13,0,*50
1494803146.24,54680,16.69,74290.0,-3.03,-34.71,-35.13,0,*5A
1494803147.48,54681,16.69,74282.5,-3.03,-34.89,-35.41,0,*5B
1494803148.74,54682,16.69,74280.5,-3.05,-35.07,-35.47,0,*5F
1494803150.0,54683,16.69,74284.8,-3.03,-35.23,-35.65,0,*5E
1494803151.23,54684,16.75,74292.3,-3.03,-35.23,-35.59,0,*56
1494803152.49,54685,16.69,74290.8,-3.03,-34.83,-35.23,0,*51
1494803153.76,54686,16.69,74290.3,-3.03,-35.07,-35.41,0,*5B
1494803155.02,54687,16.69,74286.0,-3.01,-35.07,-35.47,0,*5E
1494803156.28,54688,16.69,74288.5,-3.01,-35.41,-35.77,0,*50
1494803157.54,54689,16.69,74294.0,-3.01,-35.23,-35.59,0,*59
1494803158.76,54690,16.69,74292.0,-3.03,-35.29,-35.77,0,*55
1494803160.03,54691,16.69,74288.5,-3.01,-35.47,-35.83,0,*55
1494803161.29,54692,16.69,74292.0,-3.01,-35.59,-35.95,0,*5E
1494803162.55,54693,16.69,74294.5,-3.01,-35.59,-36.13,0,*52
1494803163.76,54694,16.69,74294.0,-3.03,-35.47,-36.01,0,*5B
1494803165.0,54695,16.69,74296.5,-3.03,-35.29,-35.65,0,*53
1494803166.25,54696,16.69,74294.3,-3.01,-35.13,-35.65,0,*5B
1494803167.5,54697,16.69,74296.3,-3.01,-35.01,-35.29,0,*51
1494803168.79,54698,16.69,74298.5,-3.01,-35.07,-35.41,0,*56
1494803170.06,54699,16.69,74296.5,-3.01,-35.23,-35.77,0,*54
1494803171.32,54700,16.69,74292.3,-3.01,-35.29,-35.83,0,*54
1494803172.59,54701,16.69,74290.5,-3.01,-35.59,-35.83,0,*52
1494803173.81,54702,16.69,74292.5,-2.99,-35.53,-36.07,0,*54
1494803175.05,54703,16.69,74292.8,-3.01,-35.59,-36.01,0,*59
1494803176.33,54704,16.69,74296.0,-3.01,-35.65,-36.13,0,*52
1494803177.57,54705,16.69,74292.5,-3.01,-35.47,-36.01,0,*50
1494803178.85,54706,16.69,74290.8,-3.01,-35.41,-35.83,0,*5C
1494803180.11,54707,16.75,74292.3,-3.01,-35.59,-36.13,0,*5E
1494803181.39,54708,16.69,74290.0,-3.01,-35.65,-36.13,0,*5E
1494803182.62,54709,16.69,74286.5,-3.01,-35.77,-36.19,0,*56
1494803183.89,54710,16.69,74284.0,-3.01,-35.77,-36.25,0,*51
1494803185.12,54711,16.69,74286.5,-3.03,-35.65,-36.19,0,*5E
1494803186.36,54712,16.69,74288.5,-3.03,-35.77,-36.25,0,*51
1494803187.64,54713,16.69,74298.8,-3.01,-35.41,-35.65,0,*50
1494803188.9,54714,16.69,74304.8,-3.01,-35.23,-35.77,0,*50
1494803190.15,54715,16.69,74304.5,-3.01,-35.29,-35.77,0,*5B
1494803191.4,54716,16.69,74296.3,-3.01,-35.13,-35.65,0,*52
1494803192.67,54717,16.69,74294.3,-3.01,-35.41,-36.01,0,*55
1494803193.91,54718,16.69,74294.3,-3.01,-35.47,-36.01,0,*5C
1494803195.16,54719,16.69,74292.0,-3.01,-35.59,-36.13,0,*51
1494803196.45,54720,16.69,74288.5,-3.01,-35.41,-35.95,0,*5F
1494803197.71,54721,16.69,74292.8,-3.01,-35.59,-36.13,0,*5A
1494803198.99,54722,16.69,74288.5,-3.01,-35.65,-36.25,0,*53
1494803200.25,54723,16.69,74288.3,-3.01,-35.59,-36.13,0,*58
1494803201.48,54724,16.69,74290.8,-3.01,-35.47,-36.19,0,*5A
1494803202.71,54725,16.69,74290.8,-3.03,-35.65,-36.19,0,*59
1494803203.98,54726,16.69,74294.5,-3.01,-35.47,-35.95,0,*5F
1494803205.24,54727,16.69,74296.0,-3.01,-35.47,-35.95,0,*5E
1494803206.49,54728,16.69,74296.8,-3.01,-35.47,-36.01,0,*5F
1494803207.72,54729,16.69,74298.0,-3.01,-35.59,-36.19,0,*58
1494803208.97,54730,16.69,74302.0,-3.01,-35.59,-36.13,0,*5A
1494803210.24,54731,16.69,74298.8,-3.01,-35.47,-35.95,0,*59
1494803211.48,54732,16.69,74294.8,-2.99,-34.77,-35.23,0,*55
1494803212.74,54733,16.69,74294.5,-3.01,-35.23,-35.77,0,*55
1494803213.98,54734,16.69,74292.5,-3.01,-35.59,-36.01,0,*5D
1494803215.23,54735,16.69,74292.8,-3.01,-35.29,-35.77,0,*59
1494803216.51,54736,16.69,74296.0,-3.01,-35.41,-35.83,0,*5F
1494803217.8,54737,16.69,74294.5,-3.01,-35.41,-35.95,0,*59
1494803219.04,54738,16.69,74296.0,-3.01,-35.47,-36.01,0,*5E
1494803220.3,54739,16.69,74298.8,-3.01,-35.59,-36.13,0,*53
1494803221.53,54740,16.69,74300.5,-3.01,-35.59,-36.01,0,*5E
1494803222.82,54741,16.69,74302.8,-3.01,-35.41,-35.83,0,*5F
1494803224.07,54742,16.69,74304.0,-3.01,-35.59,-36.13,0,*5F
1494803225.33,54743,16.69,74302.8,-3.01,-35.65,-36.19,0,*5B
1494803226.57,54744,16.69,74306.0,-3.01,-35.47,-36.01,0,*55
1494803227.81,54745,16.69,74300.5,-2.99,-35.01,-35.53,0,*52
1494803229.07,54746,16.69,74300.3,-2.99,-34.95,-35.41,0,*5E
1494803230.29,54747,16.69,74296.3,-2.99,-35.17,-35.77,0,*51
1494803231.53,54748,16.69,74294.3,-2.99,-35.35,-35.89,0,*5F
1494803232.75,54749,16.69,74288.8,-2.99,-35.53,-36.07,0,*5B
1494803233.97,54750,16.69,74298.3,-2.99,-35.53,-36.07,0,*53
1494803235.18,54751,16.69,74302.3,-2.99,-35.71,-36.19,0,*5D
1494803236.41,54752,16.69,74298.8,-2.99,-35.59,-36.13,0,*5E
1494803237.61,54753,16.69,74298.5,-2.99,-35.71,-36.19,0,*5F
1494803238.82,54754,16.69,74298.5,-2.99,-35.77,-36.19,0,*5E
1494803240.03,54755,16.69,74296.5,-2.99,-35.77,-36.19,0,*5F
1494803241.24,54756,16.69,74294.5,-2.99,-35.77,-36.19,0,*5C
1494803242.5,54757,16.69,74294.0,-2.99,-35.53,-35.95,0,*5C
1494803243.74,54758,16.69,74298.0,-3.01,-35.59,-36.01,0,*57
1494803244.98,54759,16.69,74300.0,-3.01,-35.59,-36.01,0,*56
1494803246.22,54760,16.69,74298.8,-3.01,-35.47,-36.01,0,*53
1494803247.45,54761,16.69,74292.5,-3.03,-35.59,-36.13,0,*5C
1494803248.71,54762,16.69,74292.3,-3.01,-35.47,-36.13,0,*52
1494803249.95,54763,16.69,74294.3,-3.01,-35.47,-36.01,0,*50
1494803251.21,54764,16.69,74294.3,-3.01,-35.59,-36.13,0,*5B
1494803252.49,54765,16.69,74296.5,-3.01,-35.65,-36.13,0,*55
1494803253.75,54766,16.69,74292.5,-3.01,-35.47,-35.95,0,*5B
1494803255.04,54767,16.69,74294.3,-3.01,-35.41,-35.83,0,*5B
1494803256.31,54768,16.69,74288.0,-3.01,-35.47,-35.95,0,*55
1494803257.57,54769,16.69,74294.3,-3.01,-35.59,-36.25,0,*53
1494803258.85,54770,16.69,74302.0,-3.01,-35.83,-36.37,0,*5F
1494803260.12,54771,16.69,74302.8,-3.01,-35.29,-35.83,0,*52
1494803261.32,54772,16.69,74300.3,-2.99,-35.17,-35.59,0,*5B
1494803262.58,54773,16.69,74296.0,-2.99,-34.83,-35.23,0,*5B
1494803263.84,54774,16.69,74294.3,-2.99,-34.83,-35.35,0,*5B
1494803265.06,54775,16.69,74294.3,-2.99,-34.59,-35.01,0,*5A
1494803266.32,54776,16.69,74290.5,-2.99,-34.83,-35.23,0,*5E
1494803267.59,54777,16.69,74282.0,-2.97,-35.23,-35.89,0,*5A
1494803268.85,54778,16.69,74292.8,-2.97,-35.41,-35.89,0,*51
1494803270.07,54779,16.69,74292.0,-2.99,-35.53,-36.07,0,*58
1494803271.33,54780,16.69,74294.8,-2.99,-35.41,-35.95,0,*55
1494803272.57,54781,16.69,74290.0,-2.99,-35.23,-35.77,0,*5C
1494803273.83,54782,16.69,74288.3,-2.97,-35.41,-35.77,0,*55
1494803275.08,54783,16.69,74288.8,-2.97,-35.53,-36.07,0,*53
1494803276.33,54784,16.69,74288.8,-2.97,-35.71,-36.13,0,*51
1494803277.57,54785,16.69,74296.0,-2.97,-35.59,-35.89,0,*5A
1494803278.86,54786,16.69,74294.5,-2.97,-34.83,-35.35,0,*58
1494803280.09,54787,16.69,74294.8,-2.97,-34.59,-35.17,0,*5E
1494803281.35,54788,16.69,74286.5,-2.97,-34.65,-35.17,0,*5E
1494803282.64,54789,16.69,74292.3,-2.97,-35.07,-35.41,0,*59
1494803283.88,54790,16.69,74298.0,-2.97,-34.59,-35.17,0,*58
1494803285.15,54791,16.69,74296.5,-2.91,-34.53,-34.95,0,*5E
1494803286.4,54792,16.69,74288.0,-2.95,-33.89,-34.35,0,*53
1494803287.61,54793,16.69,74282.3,-2.91,-34.25,-34.89,0,*50
1494803288.82,54794,16.69,74286.5,-2.91,-34.59,-35.17,0,*5A
1494803290.08,54795,16.69,74292.5,-2.89,-34.35,-34.89,0,*5E
1494803291.34,54796,16.69,74296.0,-2.87,-34.53,-35.07,0,*54
1494803292.58,54797,16.69,74300.5,-2.87,-35.23,-35.77,0,*54
1494803293.84,54798,16.69,74300.8,-2.87,-35.41,-35.95,0,*53
1494803295.1,54799,16.69,74304.3,-2.89,-35.13,-35.65,0,*54
1494803296.36,54800,16.69,74294.3,-2.87,-35.07,-35.65,0,*50
1494803297.62,54801,16.69,74290.0,-2.89,-35.23,-35.77,0,*5A